Location: �terpigny
(49.8910°N, 2.9249°E)
Time: 12:02:48
(UTC+00:00)

RS-44 - Pass Details

Date: 30 June 2022
Orbit: 1175 x 1510 km, 82.5° (Epoch: 11 August)

Event Time Altitude Azimuth Distance (km) Brightness Sun altitude
Rises 22:59:05 0° 255° (WSW) 4,429 ? -16.0°
Reaches altitude 10° 23:03:15 10° 275° (W) 3,520 ? -16.2°
Maximum altitude 23:08:24 17° 313° (NW) 3,070 ? -16.3°
Drops below altitude 10° 23:13:43 10° 351° (N) 3,644 ? -16.5°
Sets 23:18:12 0° 11° (N) 4,656 ? -16.6°
